[[{"header":{"parameterUnit":"m.s-1","parameterCategory":1,"la1":30.2991,"la2":30.254,"lo1":-89.0895,"lo2":-89.0444,"dy":0.0017,"dx":0.0017,"nx":28,"ny":28,"refTime":"2025-03-31T09:00:00:Z","depth":0,"parameterNumber":2,"parameterNumberName":"U-component_of_WINDS"},"data":[0,0,0,0,0,0,0,0,0,0,0,0,0,0,0,0,0,0,0,0,0,0,0,0,0,0,0,0,0,0,0,0,0,0,0,0,0,0,0,0,0,0,0,0,0,0,0,0,0,0,0,0,0,0,0,0,0,0,-3.5394,-3.5394,0,-3.5427,-3.5427,-3.5427,-3.538,-3.5378,-3.5376,-3.5375,-3.5407,-3.5409,-3.5412,0,0,0,0,0,0,0,0,0,0,0,0,0,-3.529,-3.5292,-3.5394,-3.5394,-3.5395,-3.5426,-3.5427,-3.5427,-3.538,-3.5378,-3.5376,-3.5374,-3.5406,-3.5409,-3.5412,0,0,0,0,0,0,0,0,0,0,0,0,0,-3.533,-3.5293,-3.5394,-3.5375,-3.5374,-3.5426,-3.5427,-3.5427,-3.538,-3.5378,-3.5375,-3.5373,-3.5405,-3.5409,-3.5412,-3.5485,0,0,-3.5423,-3.5425,0,0,0,0,0,0,0,0,-3.5328,-3.5334,-3.5377,-3.5376,-3.5375,-3.5397,-3.5402,-3.5447,-3.5381,-3.5378,-3.5375,-3.5372,-3.5406,-3.5409,-3.542,-3.5486,-3.5488,-3.5424,-3.5426,-3.5427,-3.5429,0,0,0,0,0,0,0,-3.5325,-3.5332,-3.5407,-3.5378,-3.5377,-3.5365,-3.5368,-3.541,-3.5405,-3.5378,-3.5375,-3.5379,-3.5404,-3.5417,-3.5421,-3.5488,-3.5424,-3.5427,-3.5429,-3.5431,-3.5615,-3.5618,0,0,0,0,0,0,-3.5325,-3.533,-3.5406,-3.5408,-3.5345,-3.5369,-3.5372,-3.5392,-3.5405,-3.5404,-3.5381,-3.5377,-3.5412,-3.5417,-3.5422,-3.5507,-3.5427,-3.5431,-3.5433,-3.5612,-3.5616,-3.5619,0,0,0,0,0,0,-3.5323,-3.5332,-3.5404,-3.5368,-3.5376,-3.5373,-3.5396,-3.5394,-3.5407,-3.5407,-3.5406,-3.5395,-3.541,-3.5417,-3.547,-3.5508,-3.5432,-3.5436,-3.5609,-3.5614,-3.5617,-3.5679,0,0,0,0,0,0,-3.532,-3.5332,-3.5359,-3.5369,-3.5379,-3.5452,-3.5399,-3.5397,-3.5413,-3.5408,-3.542,-3.542,-3.5409,-3.5464,-3.5473,-3.5511,-3.5439,-3.5606,-3.5611,-3.5616,-3.5674,-3.5685,-3.5695,0,0,0,0,0,-3.5316,-3.5375,-3.5361,-3.537,-3.5413,-3.5454,-3.546,-3.5446,-3.5417,-3.5444,-3.5445,-3.5419,-3.5503,-3.547,-3.548,-3.552,-3.5603,-3.561,-3.5616,-3.5669,-3.5683,-3.5694,0,0,0,0,0,0,-3.5369,-3.5376,-3.536,-3.5424,-3.5439,-3.5446,-3.5481,-3.5461,-3.5485,-3.5479,-3.5461,-3.5464,-3.5521,-3.5526,-3.549,-3.5591,-3.5548,-3.5556,-3.5585,-3.5598,-3.5609,-3.5606,-3.5442,0,0,0,0,0,-3.5388,-3.5421,-3.5425,-3.5481,-3.549,-3.5484,-3.5501,-3.549,-3.5505,-3.5511,-3.5515,-3.553,-3.5559,-3.5579,-3.5606,-3.5675,-3.5676,-3.5707,-3.5717,-3.5726,-3.5733,-3.5769,-3.5783,-3.5639,-3.5639,-3.5639,0,0,-3.5427,-3.5435,-3.5457,-3.5492,-3.5502,-3.5537,-3.549,-3.5528,-3.5554,-3.5516,-3.5567,-3.5571,-3.5586,-3.5647,-3.5674,-3.5653,-3.5773,-3.5734,-3.574,-3.5743,-3.5777,-3.5791,-3.5803,-3.5643,-3.5642,-3.5642,0,0,-3.5517,-3.5527,-3.5574,-3.5586,-3.5602,-3.5598,-3.561,-3.5621,-3.5622,-3.5672,-3.5645,-3.5675,-3.5726,-3.5738,-3.5751,-3.5847,-3.5824,-3.5856,-3.591,-3.5946,-3.5958,-3.5967,-3.6001,-3.6014,-3.5864,-3.5864,-3.5864,0,-3.5564,-3.5615,-3.5601,-3.5642,-3.5658,-3.5626,-3.5674,-3.5686,-3.5711,-3.5722,-3.5698,-3.5762,-3.577,-3.5834,-3.5857,-3.5869,-3.5881,-3.5854,-3.5957,-3.5967,-3.5976,-3.6008,-3.6021,-3.5868,-3.5867,-3.5867,-3.5866,0,-3.5672,-3.5708,-3.5745,-3.577,-3.579,-3.5834,-3.5826,-3.5848,-3.5835,-3.5834,-3.5886,-3.5895,-3.5923,-3.5938,-3.5925,-3.6,-3.5986,-3.596,-3.5917,-3.5994,-3.6024,-3.6036,-3.5873,-3.5872,-3.587,-3.5869,0,0,-3.5795,-3.5812,-3.5826,-3.5837,-3.5853,-3.5881,-3.5924,-3.5952,-3.5971,-3.5989,-3.6025,-3.6069,-3.6046,-3.606,-3.6049,-3.6081,-3.6156,-3.6051,-3.6051,-3.607,-3.6238,-3.6257,-3.6272,-3.6141,-3.6144,-3.6146,-3.6237,0,-3.5884,-3.5958,-3.5947,-3.6019,-3.6052,-3.6023,-3.6061,-3.6075,-3.6075,-3.6103,-3.6103,-3.6134,-3.6101,-3.6109,-3.614,-3.614,-3.6189,-3.6134,-3.6174,-3.6175,-3.617,-3.6288,-3.6308,-3.6394,-3.6248,-3.625,-3.6252,0,-3.5998,-3.6021,-3.6096,-3.6108,-3.6121,-3.6155,-3.618,-3.6208,-3.6223,-3.6221,-3.6238,-3.6222,-3.6264,-3.6221,-3.6279,-3.6242,-3.6258,-3.6261,-3.6264,-3.6266,-3.6218,-3.6293,-3.6421,-3.6433,-3.627,-3.6269,-3.6267,0,-3.608,-3.613,-3.6181,-3.6191,-3.6206,-3.6231,-3.6238,-3.6251,-3.6269,-3.6291,-3.6303,-3.633,-3.6344,-3.6366,-3.6357,-3.6326,-3.6417,-3.6373,-3.6416,-3.6417,-3.6436,-3.6435,-3.6567,-3.6447,-3.6447,-3.6447,-3.6447,0,-3.618,-3.6227,-3.6218,-3.625,-3.6302,-3.6288,-3.634,-3.6344,-3.6356,-3.6387,-3.6364,-3.6395,-3.6381,-3.641,-3.6404,-3.6453,-3.646,-3.6459,-3.6457,-3.6461,-3.6461,-3.6471,-3.6465,-3.645,-3.6449,-3.6449,-3.6448,0,-3.628,-3.6276,-3.633,-3.634,-3.6344,-3.6382,-3.639,-3.642,-3.6418,-3.6459,-3.6467,-3.6465,-3.6499,-3.6492,-3.6529,-3.6524,-3.6586,-3.6577,-3.6581,-3.6579,-3.6622,-3.6618,-3.6765,-3.6784,-3.6652,-3.6653,-3.6655,0,-3.6345,-3.638,-3.6394,-3.6414,-3.6423,-3.6456,-3.6474,-3.6463,-3.6483,-3.6503,-3.6531,-3.6562,-3.6586,-3.6641,-3.6643,-3.6671,-3.6661,-3.6711,-3.6665,-3.6669,-3.6662,-3.666,-3.6663,-3.672,-3.6721,-3.6723,-3.6724,0,-3.6459,-3.6455,-3.6483,-3.6511,-3.6533,-3.6554,-3.6573,-3.659,-3.658,-3.6604,-3.6638,-3.6657,-3.6695,-3.6727,-3.6753,-3.676,-3.674,-3.6738,-3.675,-3.6754,-3.6755,-3.6755,-3.6605,-3.6735,-3.6734,-3.6733,-3.6732,-3.6732,-3.6543,-3.6573,-3.6588,-3.662,-3.6633,-3.6651,-3.6679,-3.6682,-3.671,-3.674,-3.6732,-3.6771,-3.6786,-3.6819,-3.6829,-3.6859,-3.6841,-3.6857,-3.6861,-3.6866,-3.6871,-3.6751,-3.6864,-3.6864,-3.6863,-3.6863,-3.6863,0,-3.6656,-3.6664,-3.6694,-3.6721,-3.6746,-3.6726,-3.6746,-3.6768,-3.6802,-3.6818,-3.6843,-3.6882,-3.6913,-3.6917,-3.6946,-3.697,-3.6962,-3.6978,-3.6976,-3.6978,-3.6886,-3.6873,-3.6984,-3.6984,-3.6984,-3.6984,-3.6984,-3.6984,-3.6718,-3.6768,-3.6767,-3.6823,-3.6831,-3.6869,-3.6882,-3.6899,-3.6911,-3.6956,-3.6982,-3.6985,-3.6996,-3.7026,-3.7053,-3.7054,-3.7065,-3.7085,-3.7082,-3.6996,-3.6984,-3.6972,-3.696,-3.7088,-3.7088,-3.7171,-3.7172,-3.7172]},{"header":{"parameterUnit":"m.s-1","parameterCategory":1,"la1":30.2991,"la2":30.254,"lo1":-89.0895,"lo2":-89.0444,"dy":0.0017,"dx":0.0017,"nx":28,"ny":28,"refTime":"2025-03-31T09:00:00:Z","depth":0,"parameterNumber":3,"parameterNumberName":"V-component_of_WINDS"},"data":[0,0,0,0,0,0,0,0,0,0,0,0,0,0,0,0,0,0,0,0,0,0,0,0,0,0,0,0,0,0,0,0,0,0,0,0,0,0,0,0,0,0,0,0,0,0,0,0,0,0,0,0,0,0,0,0,0,0,1.0434,1.0434,0,1.043,1.043,1.043,1.0446,1.0447,1.0447,1.0448,1.044,1.0439,1.0439,0,0,0,0,0,0,0,0,0,0,0,0,0,1.0456,1.0455,1.0434,1.0434,1.0434,1.043,1.043,1.0429,1.0446,1.0447,1.0448,1.0448,1.044,1.0439,1.0438,0,0,0,0,0,0,0,0,0,0,0,0,0,1.0448,1.0455,1.0434,1.0442,1.0443,1.043,1.043,1.0429,1.0446,1.0447,1.0448,1.0448,1.044,1.0439,1.0438,1.0416,0,0,1.0435,1.0435,0,0,0,0,0,0,0,0,1.0449,1.0447,1.0441,1.0442,1.0442,1.044,1.0434,1.0425,1.0446,1.0445,1.0448,1.0449,1.0439,1.0438,1.0435,1.0416,1.0416,1.0435,1.0434,1.0434,1.0434,0,0,0,0,0,0,0,1.0449,1.0448,1.0432,1.0441,1.0442,1.0445,1.0445,1.0433,1.0437,1.0445,1.0446,1.0446,1.0439,1.0436,1.0435,1.0416,1.0435,1.0434,1.0434,1.0433,1.0379,1.0378,0,0,0,0,0,0,1.0449,1.0448,1.0432,1.0432,1.0447,1.0444,1.0444,1.044,1.0438,1.0438,1.0445,1.0446,1.0438,1.0436,1.0435,1.041,1.0434,1.0433,1.0432,1.038,1.0379,1.0378,0,0,0,0,0,0,1.0449,1.0447,1.0433,1.044,1.0439,1.0443,1.0438,1.0439,1.0436,1.0438,1.0438,1.0441,1.0438,1.0437,1.0421,1.041,1.0433,1.0432,1.0381,1.038,1.0378,1.0358,0,0,0,0,0,0,1.045,1.0447,1.0439,1.044,1.0438,1.0419,1.0437,1.0438,1.0435,1.0436,1.0434,1.0435,1.0439,1.0423,1.042,1.0409,1.0431,1.0382,1.038,1.0379,1.036,1.0356,1.0353,0,0,0,0,0,1.0451,1.0433,1.0439,1.0437,1.0429,1.0419,1.0418,1.0424,1.0434,1.0425,1.0427,1.0435,1.0412,1.0421,1.0418,1.0406,1.0383,1.0381,1.0379,1.0361,1.0357,1.0354,0,0,0,0,0,0,1.0429,1.0433,1.044,1.0422,1.042,1.0422,1.0411,1.0419,1.0413,1.0415,1.0422,1.0421,1.0405,1.0404,1.0415,1.0385,1.0399,1.0396,1.0386,1.0382,1.0379,1.0379,1.043,0,0,0,0,0,1.0423,1.0415,1.0419,1.0403,1.0402,1.0407,1.0403,1.0408,1.0406,1.0405,1.0405,1.0401,1.0394,1.0388,1.0381,1.036,1.036,1.0351,1.0348,1.0345,1.0342,1.0332,1.0328,1.0372,1.0372,1.0372,0,0,1.0409,1.041,1.0405,1.0399,1.0398,1.0389,1.0406,1.0396,1.0389,1.0403,1.0389,1.0389,1.0386,1.0368,1.036,1.0367,1.033,1.0343,1.034,1.0339,1.0329,1.0325,1.0321,1.0371,1.0371,1.0371,0,0,1.0379,1.0379,1.0366,1.0366,1.0365,1.0368,1.0365,1.0366,1.0367,1.0354,1.0364,1.0356,1.0342,1.034,1.0336,1.0308,1.0315,1.0305,1.0288,1.0277,1.0274,1.0271,1.026,1.0256,1.0303,1.0303,1.0303,0,1.0361,1.0349,1.0358,1.0348,1.0345,1.0359,1.0346,1.0344,1.034,1.0338,1.0346,1.0329,1.0328,1.031,1.0304,1.0301,1.0297,1.0305,1.0274,1.0271,1.0268,1.0258,1.0254,1.0301,1.0302,1.0302,1.0302,0,1.0328,1.032,1.0309,1.0307,1.0303,1.0291,1.0298,1.0293,1.0299,1.0302,1.0288,1.0287,1.028,1.0277,1.0282,1.026,1.0264,1.0273,1.0286,1.0263,1.0253,1.0249,1.03,1.03,1.0301,1.0301,0,0,1.0282,1.0287,1.0283,1.0282,1.0283,1.0276,1.0265,1.026,1.0255,1.0253,1.0243,1.0232,1.0241,1.0238,1.0243,1.0234,1.0211,1.0244,1.0244,1.0237,1.0187,1.0179,1.0175,1.0217,1.0216,1.0215,1.0187,0,1.0253,1.0235,1.0244,1.0224,1.0217,1.0231,1.0221,1.022,1.0223,1.0217,1.0219,1.0211,1.0224,1.0222,1.0214,1.0216,1.0201,1.0218,1.0207,1.0206,1.0206,1.017,1.0162,1.0135,1.0183,1.0183,1.0182,0,1.0215,1.0213,1.0193,1.0197,1.0194,1.0185,1.0181,1.0175,1.0175,1.0177,1.0175,1.0182,1.0171,1.0186,1.0171,1.0182,1.0179,1.0179,1.0178,1.0176,1.0192,1.0166,1.0127,1.0122,1.0177,1.0177,1.0177,0,1.0184,1.0176,1.0163,1.0162,1.0165,1.0159,1.016,1.016,1.0157,1.0154,1.0152,1.0147,1.0144,1.014,1.0146,1.0156,1.013,1.0144,1.0131,1.0131,1.0123,1.0124,1.0081,1.0123,1.0123,1.0123,1.0123,0,1.0149,1.0137,1.0149,1.0141,1.0128,1.0138,1.0124,1.0126,1.0127,1.0119,1.0131,1.0123,1.0132,1.0125,1.013,1.0117,1.0115,1.0117,1.0118,1.0115,1.0115,1.0112,1.0114,1.0122,1.0122,1.0122,1.0122,0,1.0111,1.0119,1.0106,1.0111,1.0112,1.0102,1.0106,1.0099,1.0103,1.0093,1.0092,1.0098,1.0091,1.0097,1.009,1.0093,1.0075,1.008,1.0076,1.0077,1.0062,1.0063,1.0016,1.001,1.0056,1.0055,1.0055,0,1.0088,1.0079,1.0084,1.008,1.0081,1.0075,1.0072,1.0082,1.0078,1.0078,1.007,1.0065,1.006,1.0048,1.0052,1.0046,1.005,1.0034,1.0049,1.0047,1.0049,1.0049,1.0048,1.003,1.003,1.0029,1.0029,0,1.0047,1.0051,1.0047,1.0045,1.0041,1.004,1.0039,1.0035,1.0045,1.004,1.0034,1.0031,1.0025,1.0018,1.0015,1.0015,1.0023,1.0025,1.0021,1.0018,1.0016,1.0016,1.0066,1.0025,1.0026,1.0026,1.0026,1.0026,1.0015,1.0008,1.001,1.0005,1.0006,1.0005,0.9999,1.0003,0.9998,0.9995,1.0001,0.9993,0.9993,0.9989,0.9989,0.9982,0.9989,0.9984,0.9982,0.9981,0.9978,1.0018,0.9982,0.9982,0.9982,0.9982,0.9982,0,0.9974,0.9976,0.9972,0.9971,0.9967,0.9978,0.9977,0.9973,0.9966,0.9967,0.9963,0.9956,0.995,0.9954,0.9949,0.9944,0.9947,0.9942,0.9942,0.9942,0.9973,0.9976,0.9939,0.9939,0.9939,0.9939,0.9939,0.9939,0.9951,0.994,0.9945,0.9934,0.9937,0.993,0.9929,0.9928,0.9928,0.992,0.9916,0.9919,0.9921,0.9917,0.9912,0.9914,0.9911,0.9904,0.9906,0.9935,0.9939,0.9943,0.9947,0.9904,0.9904,0.9876,0.9876,0.9875]}]]